Weather History for Binghamton, NY

Change the Weather History Date:

Tuesday, February 12, 2013

  Actual Average Record
Temperature  
Mean Temperature 31 °F 24 °F  
Max Temperature 33 °F 31 °F 60 °F (1999)
Min Temperature 28 °F 17 °F -12 °F (1979)
Degree Days  
Heating Degree Days 34 41  
Month to date heating degree days 524 500  
Since 1 July heating degree days 4267 4572  
Cooling Degree Days 0 0  
Month to date cooling degree days 0 0  
Year to date cooling degree days 0 0  
Moisture  
Dew Point 21 °F    
Average Humidity 71    
Maximum Humidity 82    
Minimum Humidity 59    
Precipitation  
Precipitation T in 0.08 in 0.95 in (1988)
Month to date precipitation 0.77 0.96  
Year to date precipitation 3.02 3.41  
Snow  
Snow T in 0.60 in 7.50 in (1988)
Month to date snowfall 11.2 7.3  
Since 1 July snowfall 45.4 54.1  
Snow Depth 4.00 in    
Sea Level Pressure  
Sea Level Pressure 29.85 in    
Wind  
Wind Speed 11 mph (WNW)    
Max Wind Speed 24 mph    
Max Gust Speed 31 mph    
Visibility 10 miles    
Events Snow    
T = Trace of Precipitation, MM = Missing Value Source: NWS Daily Summary

Daily Weather History Graph

Daily Weather History Graph

Search for Another Location

Airport:

Trip Planner

Search our weather history database for the weather conditions in past years. The results will help you decide how hot, cold, wet, or windy it might be!

Date:

Astronomy

Feb. 12, 2013 Rise Set
Actual Time 7:03 AM EST 5:32 PM EST
Civil Twilight 6:34 AM EST 6:01 PM EST
Nautical Twilight 6:02 AM EST 6:34 PM EST
Astronomical Twilight 5:29 AM EST 7:07 PM EST
Moon 7:56 AM EST (2/12) 8:35 PM EST (2/12)
Length of Visible Light 11h 26m
Length of Day
10h 29m
Waxing Crescent, 7% of the Moon is Illuminated
Feb 12
Waxing Crescent
Feb 17
First Quarter
Feb 25
Full
Mar 4
Last Quarter
Mar 11
New

Hourly Weather History & Observations

Time (EST) Temp. Windchill Dew Point Humidity Pressure Visibility Wind Dir Wind Speed Gust Speed Precip Events Conditions
12:06 AM 33.8 °F 27.7 °F 26.6 °F 75% 29.67 in 10.0 mi West 6.9 mph - N/A   Overcast
12:53 AM 33.1 °F 23.0 °F 25.0 °F 72% 29.71 in 10.0 mi West 15.0 mph 23.0 mph N/A   Overcast
1:53 AM 33.1 °F 26.9 °F 24.1 °F 70% 29.73 in 10.0 mi West 6.9 mph - N/A   Overcast
2:53 AM 33.1 °F 23.4 °F 23.0 °F 66% 29.74 in 10.0 mi West 13.8 mph - N/A   Overcast
3:53 AM 32.0 °F 22.5 °F 23.0 °F 69% 29.75 in 10.0 mi West 12.7 mph - N/A   Overcast
4:53 AM 32.0 °F 23.0 °F 23.0 °F 69% 29.77 in 10.0 mi West 11.5 mph 17.3 mph N/A   Overcast
5:53 AM 32.0 °F 23.0 °F 21.9 °F 66% 29.78 in 10.0 mi West 11.5 mph 23.0 mph N/A   Overcast
6:53 AM 30.9 °F 22.2 °F 21.9 °F 69% 29.81 in 10.0 mi West 10.4 mph - N/A   Overcast
7:53 AM 30.9 °F 20.2 °F 21.9 °F 69% 29.83 in 9.0 mi WNW 15.0 mph 26.5 mph 0.00 in Snow Light Snow
8:53 AM 30.9 °F 19.4 °F 21.0 °F 67% 29.85 in 10.0 mi WNW 17.3 mph 24.2 mph 0.00 in   Overcast
9:53 AM 30.9 °F 22.2 °F 21.0 °F 67% 29.88 in 10.0 mi WNW 10.4 mph 21.9 mph N/A   Overcast
10:53 AM 30.9 °F 19.1 °F 21.0 °F 67% 29.89 in 10.0 mi WNW 18.4 mph 31.1 mph N/A   Overcast
11:53 AM 30.9 °F 20.2 °F 21.0 °F 67% 29.89 in 10.0 mi WNW 15.0 mph 25.3 mph N/A   Overcast
12:53 PM 30.9 °F 19.4 °F 19.9 °F 64% 29.90 in 10.0 mi West 17.3 mph 26.5 mph N/A   Overcast
1:53 PM 32.0 °F 21.6 °F 19.9 °F 61% 29.90 in 10.0 mi West 15.0 mph 19.6 mph N/A   Overcast
2:07 PM 32.0 °F 22.5 °F 19.4 °F 60% 29.84 in 10.0 mi WNW 12.7 mph 20.7 mph N/A   Overcast
2:53 PM 30.9 °F 23.5 °F 19.9 °F 64% 29.88 in 10.0 mi WNW 8.1 mph - N/A   Overcast
3:13 PM 30.2 °F 22.6 °F 19.4 °F 64% 29.83 in 10.0 mi WNW 8.1 mph 18.4 mph N/A   Overcast
3:53 PM 30.9 °F 25.2 °F 19.0 °F 61% 29.86 in 10.0 mi NW 5.8 mph - N/A   Overcast
4:48 PM 30.2 °F 23.4 °F 19.4 °F 64% 29.83 in 10.0 mi NW 6.9 mph - N/A   Overcast
4:53 PM 30.0 °F 23.2 °F 19.9 °F 66% 29.88 in 10.0 mi NW 6.9 mph - N/A   Overcast
5:53 PM 30.0 °F 21.1 °F 19.9 °F 66% 29.92 in 10.0 mi WNW 10.4 mph - N/A   Overcast
6:10 PM 30.2 °F 20.8 °F 19.4 °F 64% 29.88 in 10.0 mi West 11.5 mph - N/A   Overcast
6:33 PM 28.4 °F 21.2 °F 19.4 °F 69% 29.89 in 10.0 mi WNW 6.9 mph - N/A   Overcast
6:53 PM 28.9 °F 21.1 °F 19.0 °F 67% 29.95 in 10.0 mi West 8.1 mph - N/A   Overcast
7:53 PM 28.9 °F 20.4 °F 19.0 °F 67% 29.95 in 10.0 mi West 9.2 mph - N/A   Overcast
8:53 PM 28.9 °F 21.1 °F 19.0 °F 67% 29.94 in 10.0 mi West 8.1 mph - N/A   Overcast
9:53 PM 28.0 °F 18.6 °F 19.9 °F 72% 29.94 in 10.0 mi West 10.4 mph - N/A   Overcast
10:14 PM 28.4 °F 21.2 °F 19.4 °F 69% 29.87 in 10.0 mi West 6.9 mph - N/A   Overcast
10:53 PM 28.0 °F 20.8 °F 19.9 °F 72% 29.92 in 10.0 mi West 6.9 mph - N/A   Overcast
11:12 PM 28.4 °F 21.2 °F 19.4 °F 69% 29.86 in 10.0 mi West 6.9 mph - N/A   Overcast
11:53 PM 28.0 °F 20.8 °F 19.9 °F 72% 29.92 in 10.0 mi West 6.9 mph - N/A   Overcast